WXM80 ListenWXM80 Stop

You find our weather info also at:

UK Metoffice

WeatherCloud

Weather Underground

Northeastern Weather Network

AWEKAS

Citizen Weather Observer Program (CWOP)

HAMweather, WeatherForYou, PWS Weather


Weather Underground History page Text

Daily Summary for March 7, 2017 Units:  Both    English   Metric
« Previous Day
Next Day »
Daily Weekly Monthly Yearly Custom
  High: Low: Average:
Temperature: 52.8 °F /  11.6 °C 39.5 °F /  4.2 °C 47.3 °F /  8.5 °C
Dew Point: 48.0 °F /  8.9 °C 32.9 °F /  0.5 °C 43.3 °F /  6.3 °C
Humidity: 94 % 77 % 86 %
Wind Speed: 9.0 mph /  14.5 km/h - 3.3 mph /  5.3 km/h
Wind Gust: 19.6 mph /  31.5 km/h - -
Wind:- - South
Pressure: 30.40 in /  1029.3 hPa 29.98 in /  1015.1 hPa -
Precipitation: 0.00 in /  0 mm    
Historical Graphs
 
 
Tabular Data for March 7, 2017
Time Temperature Dew Point Pressure Wind Wind Speed Wind Gust Humidity Rainfall Rate (Hourly)
00:02 39.5 °F /  4.2 °C 32.9 °F /  0.5 °C 30.40 in /  1029.3 hPa South 3.0 mph /  4.8 km/h 4.6 mph /  7.4 km/h 77 % 0.00 in /  0 mm
00:07 39.6 °F /  4.2 °C 33.3 °F /  0.7 °C 30.40 in /  1029.3 hPa Calm   1.0 mph /  1.6 km/h 78 % 0.00 in /  0 mm
00:12 39.7 °F /  4.3 °C 33.4 °F /  0.8 °C 30.40 in /  1029.3 hPa South 1.1 mph /  1.8 km/h 3.5 mph /  5.6 km/h 78 % 0.00 in /  0 mm
00:17 39.7 °F /  4.3 °C 33.4 °F /  0.8 °C 30.39 in /  1029 hPa Calm   1.2 mph /  1.9 km/h 78 % 0.00 in /  0 mm
00:22 39.8 °F /  4.3 °C 33.5 °F /  0.8 °C 30.40 in /  1029.3 hPa SSE 0.8 mph /  1.3 km/h 3.5 mph /  5.6 km/h 78 % 0.00 in /  0 mm
00:28 39.9 °F /  4.4 °C 33.6 °F /  0.9 °C 30.40 in /  1029.3 hPa SSW 0.1 mph /  0.2 km/h 1.2 mph /  1.9 km/h 78 % 0.00 in /  0 mm
00:33 39.9 °F /  4.4 °C 33.6 °F /  0.9 °C 30.40 in /  1029.3 hPa South 0.3 mph /  0.5 km/h 3.5 mph /  5.6 km/h 78 % 0.00 in /  0 mm
00:38 40.0 °F /  4.4 °C 34.0 °F /  1.1 °C 30.40 in /  1029.3 hPa SSW 0.7 mph /  1.1 km/h 2.3 mph /  3.7 km/h 79 % 0.00 in /  0 mm
00:43 40.0 °F /  4.4 °C 34.0 °F /  1.1 °C 30.40 in /  1029.3 hPa South 1.0 mph /  1.6 km/h 3.5 mph /  5.6 km/h 79 % 0.00 in /  0 mm
00:48 40.1 °F /  4.5 °C 34.1 °F /  1.2 °C 30.40 in /  1029.3 hPa South 1.1 mph /  1.8 km/h 1.2 mph /  1.9 km/h 79 % 0.00 in /  0 mm
00:53 40.1 °F /  4.5 °C 34.1 °F /  1.2 °C 30.40 in /  1029.3 hPa Calm   3.0 mph /  4.8 km/h 79 % 0.00 in /  0 mm
00:58 40.2 °F /  4.6 °C 34.2 °F /  1.2 °C 30.39 in /  1029 hPa South 0.5 mph /  0.8 km/h 1.2 mph /  1.9 km/h 79 % 0.00 in /  0 mm
01:03 40.2 °F /  4.6 °C 34.2 °F /  1.2 °C 30.39 in /  1029 hPa South 1.0 mph /  1.6 km/h 3.0 mph /  4.8 km/h 79 % 0.00 in /  0 mm
01:08 40.2 °F /  4.6 °C 34.2 °F /  1.2 °C 30.39 in /  1029 hPa SSW 1.0 mph /  1.6 km/h 2.0 mph /  3.2 km/h 79 % 0.00 in /  0 mm
01:13 40.3 °F /  4.6 °C 34.6 °F /  1.4 °C 30.39 in /  1029 hPa SSE 0.7 mph /  1.1 km/h 2.3 mph /  3.7 km/h 80 % 0.00 in /  0 mm
01:18 40.4 °F /  4.7 °C 34.7 °F /  1.5 °C 30.39 in /  1029 hPa Calm     80 % 0.00 in /  0 mm
01:23 40.5 °F /  4.7 °C 34.8 °F /  1.6 °C 30.39 in /  1029 hPa South 2.0 mph /  3.2 km/h 5.0 mph /  8 km/h 80 % 0.00 in /  0 mm
01:28 40.5 °F /  4.7 °C 34.8 °F /  1.6 °C 30.39 in /  1029 hPa Calm   3.5 mph /  5.6 km/h 80 % 0.00 in /  0 mm
01:33 40.6 °F /  4.8 °C 34.9 °F /  1.6 °C 30.39 in /  1029 hPa Calm   2.0 mph /  3.2 km/h 80 % 0.00 in /  0 mm
01:38 40.6 °F /  4.8 °C 34.9 °F /  1.6 °C 30.39 in /  1029 hPa South 1.0 mph /  1.6 km/h 4.0 mph /  6.4 km/h 80 % 0.00 in /  0 mm
01:43 40.7 °F /  4.8 °C 35.0 °F /  1.7 °C 30.38 in /  1028.7 hPa South 0.9 mph /  1.4 km/h 2.3 mph /  3.7 km/h 80 % 0.00 in /  0 mm
01:48 40.8 °F /  4.9 °C 35.1 °F /  1.7 °C 30.38 in /  1028.7 hPa South 3.0 mph /  4.8 km/h 6.0 mph /  9.7 km/h 80 % 0.00 in /  0 mm
01:53 40.9 °F /  4.9 °C 35.2 °F /  1.8 °C 30.38 in /  1028.7 hPa Calm   4.0 mph /  6.4 km/h 80 % 0.00 in /  0 mm
01:54 40.9 °F /  4.9 °C 35.2 °F /  1.8 °C 30.38 in /  1028.7 hPa SSE 1.8 mph /  2.9 km/h 3.5 mph /  5.6 km/h 80 % 0.00 in /  0 mm
01:59 41.0 °F /  5 °C 35.3 °F /  1.8 °C 30.38 in /  1028.7 hPa SSW 1.4 mph /  2.3 km/h 3.5 mph /  5.6 km/h 80 % 0.00 in /  0 mm
02:05 41.1 °F /  5.1 °C 35.4 °F /  1.9 °C 30.38 in /  1028.7 hPa SSE 0.9 mph /  1.4 km/h 3.5 mph /  5.6 km/h 80 % 0.00 in /  0 mm
02:10 41.1 °F /  5.1 °C 35.1 °F /  1.7 °C 30.37 in /  1028.3 hPa SSW 2.9 mph /  4.7 km/h 5.0 mph /  8 km/h 79 % 0.00 in /  0 mm
02:15 41.2 °F /  5.1 °C 35.2 °F /  1.8 °C 30.37 in /  1028.3 hPa South 1.6 mph /  2.6 km/h 3.5 mph /  5.6 km/h 79 % 0.00 in /  0 mm
02:20 41.3 °F /  5.2 °C 35.3 °F /  1.8 °C 30.37 in /  1028.3 hPa South 1.2 mph /  1.9 km/h 4.6 mph /  7.4 km/h 79 % 0.00 in /  0 mm
02:25 41.3 °F /  5.2 °C 35.3 °F /  1.8 °C 30.37 in /  1028.3 hPa Calm   1.0 mph /  1.6 km/h 79 % 0.00 in /  0 mm
02:30 41.3 °F /  5.2 °C 35.6 °F /  2 °C 30.37 in /  1028.3 hPa South 3.5 mph /  5.6 km/h 4.6 mph /  7.4 km/h 80 % 0.00 in /  0 mm
02:35 41.3 °F /  5.2 °C 35.6 °F /  2 °C 30.37 in /  1028.3 hPa South 1.5 mph /  2.4 km/h 4.0 mph /  6.4 km/h 80 % 0.00 in /  0 mm
02:40 41.3 °F /  5.2 °C 35.6 °F /  2 °C 30.36 in /  1028 hPa South 0.6 mph /  1 km/h 2.3 mph /  3.7 km/h 80 % 0.00 in /  0 mm
02:45 41.4 °F /  5.2 °C 36.0 °F /  2.2 °C 30.36 in /  1028 hPa SSE 1.0 mph /  1.6 km/h 3.5 mph /  5.6 km/h 81 % 0.00 in /  0 mm
02:50 41.4 °F /  5.2 °C 36.0 °F /  2.2 °C 30.36 in /  1028 hPa SSE 2.1 mph /  3.4 km/h 3.5 mph /  5.6 km/h 81 % 0.00 in /  0 mm
02:55 41.4 °F /  5.2 °C 36.0 °F /  2.2 °C 30.36 in /  1028 hPa South 1.1 mph /  1.8 km/h 3.5 mph /  5.6 km/h 81 % 0.00 in /  0 mm
03:00 41.4 °F /  5.2 °C 36.0 °F /  2.2 °C 30.36 in /  1028 hPa SSE 1.6 mph /  2.6 km/h 3.5 mph /  5.6 km/h 81 % 0.00 in /  0 mm
03:05 41.5 °F /  5.3 °C 36.1 °F /  2.3 °C 30.35 in /  1027.7 hPa SSW 1.4 mph /  2.3 km/h 3.0 mph /  4.8 km/h 81 % 0.00 in /  0 mm
03:11 41.5 °F /  5.3 °C 36.4 °F /  2.4 °C 30.35 in /  1027.7 hPa South 2.2 mph /  3.5 km/h 4.6 mph /  7.4 km/h 82 % 0.00 in /  0 mm
03:14 41.5 °F /  5.3 °C 36.4 °F /  2.4 °C 30.35 in /  1027.7 hPa SSE 2.2 mph /  3.5 km/h 4.6 mph /  7.4 km/h 82 % 0.00 in /  0 mm
03:20 41.6 °F /  5.3 °C 36.5 °F /  2.5 °C 30.35 in /  1027.7 hPa SSE 0.5 mph /  0.8 km/h 3.5 mph /  5.6 km/h 82 % 0.00 in /  0 mm
03:25 41.6 °F /  5.3 °C 36.5 °F /  2.5 °C 30.35 in /  1027.7 hPa SSE 1.3 mph /  2.1 km/h 4.0 mph /  6.4 km/h 82 % 0.00 in /  0 mm
03:30 41.7 °F /  5.4 °C 36.6 °F /  2.6 °C 30.35 in /  1027.7 hPa SE 0.5 mph /  0.8 km/h 2.3 mph /  3.7 km/h 82 % 0.00 in /  0 mm
03:35 41.8 °F /  5.4 °C 36.7 °F /  2.6 °C 30.35 in /  1027.7 hPa SSW 2.3 mph /  3.7 km/h 5.0 mph /  8 km/h 82 % 0.00 in /  0 mm
03:40 41.8 °F /  5.4 °C 36.7 °F /  2.6 °C 30.35 in /  1027.7 hPa SSW 2.7 mph /  4.3 km/h 3.5 mph /  5.6 km/h 82 % 0.00 in /  0 mm
03:45 41.9 °F /  5.5 °C 36.8 °F /  2.7 °C 30.35 in /  1027.7 hPa SSE 0.1 mph /  0.2 km/h 1.2 mph /  1.9 km/h 82 % 0.00 in /  0 mm
03:50 41.9 °F /  5.5 °C 36.8 °F /  2.7 °C 30.35 in /  1027.7 hPa South 1.0 mph /  1.6 km/h 3.5 mph /  5.6 km/h 82 % 0.00 in /  0 mm
03:55 42.0 °F /  5.6 °C 36.9 °F /  2.7 °C 30.35 in /  1027.7 hPa SE 0.2 mph /  0.3 km/h 1.2 mph /  1.9 km/h 82 % 0.00 in /  0 mm
04:00 42.0 °F /  5.6 °C 36.9 °F /  2.7 °C 30.35 in /  1027.7 hPa Calm   3.5 mph /  5.6 km/h 82 % 0.00 in /  0 mm
04:05 42.1 °F /  5.6 °C 37.0 °F /  2.8 °C 30.35 in /  1027.7 hPa SSE 3.7 mph /  6 km/h 7.0 mph /  11.3 km/h 82 % 0.00 in /  0 mm
04:10 42.2 °F /  5.7 °C 37.4 °F /  3 °C 30.35 in /  1027.7 hPa SSW 0.4 mph /  0.6 km/h 3.0 mph /  4.8 km/h 83 % 0.00 in /  0 mm
04:15 42.2 °F /  5.7 °C 37.4 °F /  3 °C 30.35 in /  1027.7 hPa SSE 1.4 mph /  2.3 km/h 2.3 mph /  3.7 km/h 83 % 0.00 in /  0 mm
04:20 42.3 °F /  5.7 °C 37.5 °F /  3.1 °C 30.35 in /  1027.7 hPa SSE 3.2 mph /  5.1 km/h 4.6 mph /  7.4 km/h 83 % 0.00 in /  0 mm
04:26 42.4 °F /  5.8 °C 37.6 °F /  3.1 °C 30.35 in /  1027.7 hPa SSE 2.4 mph /  3.9 km/h 4.6 mph /  7.4 km/h 83 % 0.00 in /  0 mm
04:31 42.4 °F /  5.8 °C 37.6 °F /  3.1 °C 30.35 in /  1027.7 hPa SSE 1.1 mph /  1.8 km/h 2.3 mph /  3.7 km/h 83 % 0.00 in /  0 mm
04:36 42.5 °F /  5.8 °C 37.7 °F /  3.2 °C 30.35 in /  1027.7 hPa SSE 0.9 mph /  1.4 km/h 3.5 mph /  5.6 km/h 83 % 0.00 in /  0 mm
04:41 42.5 °F /  5.8 °C 37.7 °F /  3.2 °C 30.35 in /  1027.7 hPa SSE 4.0 mph /  6.4 km/h 6.9 mph /  11.1 km/h 83 % 0.00 in /  0 mm
04:46 42.5 °F /  5.8 °C 37.7 °F /  3.2 °C 30.35 in /  1027.7 hPa South 3.0 mph /  4.8 km/h 4.6 mph /  7.4 km/h 83 % 0.00 in /  0 mm
04:51 42.5 °F /  5.8 °C 37.7 °F /  3.2 °C 30.35 in /  1027.7 hPa SE 2.4 mph /  3.9 km/h 4.0 mph /  6.4 km/h 83 % 0.00 in /  0 mm
04:56 42.5 °F /  5.8 °C 37.7 °F /  3.2 °C 30.35 in /  1027.7 hPa SE 2.4 mph /  3.9 km/h 4.6 mph /  7.4 km/h 83 % 0.00 in /  0 mm
05:01 42.5 °F /  5.8 °C 37.7 °F /  3.2 °C 30.35 in /  1027.7 hPa SSE 2.6 mph /  4.2 km/h 4.6 mph /  7.4 km/h 83 % 0.00 in /  0 mm
05:06 42.6 °F /  5.9 °C 37.8 °F /  3.2 °C 30.35 in /  1027.7 hPa SE 1.4 mph /  2.3 km/h 3.5 mph /  5.6 km/h 83 % 0.00 in /  0 mm
05:11 42.6 °F /  5.9 °C 37.8 °F /  3.2 °C 30.35 in /  1027.7 hPa SE 1.2 mph /  1.9 km/h 3.5 mph /  5.6 km/h 83 % 0.00 in /  0 mm
05:16 42.6 °F /  5.9 °C 37.8 °F /  3.2 °C 30.35 in /  1027.7 hPa SSE 1.0 mph /  1.6 km/h 3.5 mph /  5.6 km/h 83 % 0.00 in /  0 mm
05:21 42.7 °F /  5.9 °C 37.9 °F /  3.3 °C 30.34 in /  1027.3 hPa SSE 1.2 mph /  1.9 km/h 3.5 mph /  5.6 km/h 83 % 0.00 in /  0 mm
05:27 42.7 °F /  5.9 °C 37.9 °F /  3.3 °C 30.34 in /  1027.3 hPa Calm     83 % 0.00 in /  0 mm
05:32 42.7 °F /  5.9 °C 37.9 °F /  3.3 °C 30.34 in /  1027.3 hPa SSE 1.4 mph /  2.3 km/h 5.8 mph /  9.3 km/h 83 % 0.00 in /  0 mm
05:37 42.8 °F /  6 °C 38.0 °F /  3.3 °C 30.34 in /  1027.3 hPa SE 1.4 mph /  2.3 km/h 3.5 mph /  5.6 km/h 83 % 0.00 in /  0 mm
05:42 42.8 °F /  6 °C 38.0 °F /  3.3 °C 30.34 in /  1027.3 hPa SSE 2.4 mph /  3.9 km/h 3.5 mph /  5.6 km/h 83 % 0.00 in /  0 mm
05:47 42.9 °F /  6.1 °C 38.4 °F /  3.6 °C 30.35 in /  1027.7 hPa SSE 1.3 mph /  2.1 km/h 3.5 mph /  5.6 km/h 84 % 0.00 in /  0 mm
05:52 42.9 °F /  6.1 °C 38.4 °F /  3.6 °C 30.35 in /  1027.7 hPa SSE 2.8 mph /  4.5 km/h 4.6 mph /  7.4 km/h 84 % 0.00 in /  0 mm
05:57 43.0 °F /  6.1 °C 38.5 °F /  3.6 °C 30.35 in /  1027.7 hPa SSW 1.1 mph /  1.8 km/h 3.5 mph /  5.6 km/h 84 % 0.00 in /  0 mm
06:02 43.0 °F /  6.1 °C 38.5 °F /  3.6 °C 30.35 in /  1027.7 hPa SSE 1.6 mph /  2.6 km/h 3.5 mph /  5.6 km/h 84 % 0.00 in /  0 mm
06:07 43.1 °F /  6.2 °C 38.6 °F /  3.7 °C 30.35 in /  1027.7 hPa SE 2.0 mph /  3.2 km/h 3.5 mph /  5.6 km/h 84 % 0.00 in /  0 mm
06:12 43.2 °F /  6.2 °C 39.0 °F /  3.9 °C 30.34 in /  1027.3 hPa SE 0.6 mph /  1 km/h 3.5 mph /  5.6 km/h 85 % 0.00 in /  0 mm
06:17 43.3 °F /  6.3 °C 39.1 °F /  3.9 °C 30.34 in /  1027.3 hPa SSE 1.2 mph /  1.9 km/h 3.5 mph /  5.6 km/h 85 % 0.00 in /  0 mm
06:22 43.3 °F /  6.3 °C 39.1 °F /  3.9 °C 30.34 in /  1027.3 hPa SSE 0.5 mph /  0.8 km/h 3.5 mph /  5.6 km/h 85 % 0.00 in /  0 mm
06:28 43.4 °F /  6.3 °C 39.2 °F /  4 °C 30.34 in /  1027.3 hPa South 3.4 mph /  5.5 km/h 4.0 mph /  6.4 km/h 85 % 0.00 in /  0 mm
06:33 43.5 °F /  6.4 °C 39.6 °F /  4.2 °C 30.34 in /  1027.3 hPa SE 3.5 mph /  5.6 km/h 6.9 mph /  11.1 km/h 86 % 0.00 in /  0 mm
06:38 43.6 °F /  6.4 °C 39.7 °F /  4.3 °C 30.34 in /  1027.3 hPa SSE 1.6 mph /  2.6 km/h 3.5 mph /  5.6 km/h 86 % 0.00 in /  0 mm
06:43 43.6 °F /  6.4 °C 39.7 °F /  4.3 °C 30.34 in /  1027.3 hPa SE 0.2 mph /  0.3 km/h 1.2 mph /  1.9 km/h 86 % 0.00 in /  0 mm
06:48 43.6 °F /  6.4 °C 39.7 °F /  4.3 °C 30.34 in /  1027.3 hPa Calm   3.0 mph /  4.8 km/h 86 % 0.00 in /  0 mm
06:53 43.6 °F /  6.4 °C 39.7 °F /  4.3 °C 30.35 in /  1027.7 hPa Calm   1.0 mph /  1.6 km/h 86 % 0.00 in /  0 mm
06:58 43.7 °F /  6.5 °C 39.8 °F /  4.3 °C 30.34 in /  1027.3 hPa SE 2.3 mph /  3.7 km/h 3.5 mph /  5.6 km/h 86 % 0.00 in /  0 mm
07:03 43.8 °F /  6.6 °C 40.2 °F /  4.6 °C 30.34 in /  1027.3 hPa SE 3.0 mph /  4.8 km/h 7.0 mph /  11.3 km/h 87 % 0.00 in /  0 mm
07:08 43.9 °F /  6.6 °C 40.3 °F /  4.6 °C 30.34 in /  1027.3 hPa SE 1.0 mph /  1.6 km/h 6.0 mph /  9.7 km/h 87 % 0.00 in /  0 mm
07:13 44.0 °F /  6.7 °C 40.4 °F /  4.7 °C 30.34 in /  1027.3 hPa SE 2.0 mph /  3.2 km/h 7.0 mph /  11.3 km/h 87 % 0.00 in /  0 mm
07:18 44.1 °F /  6.7 °C 40.5 °F /  4.7 °C 30.34 in /  1027.3 hPa SE 3.0 mph /  4.8 km/h 8.0 mph /  12.9 km/h 87 % 0.00 in /  0 mm
07:21 44.2 °F /  6.8 °C 40.6 °F /  4.8 °C 30.33 in /  1027 hPa SSE 3.8 mph /  6.1 km/h 9.2 mph /  14.8 km/h 87 % 0.00 in /  0 mm
07:26 44.4 °F /  6.9 °C 40.8 °F /  4.9 °C 30.33 in /  1027 hPa SSE 5.5 mph /  8.9 km/h 10.0 mph /  16.1 km/h 87 % 0.00 in /  0 mm
07:31 44.6 °F /  7 °C 41.0 °F /  5 °C 30.33 in /  1027 hPa South 3.1 mph /  5 km/h 8.1 mph /  13 km/h 87 % 0.00 in /  0 mm
07:36 44.7 °F /  7.1 °C 41.1 °F /  5.1 °C 30.33 in /  1027 hPa South 4.9 mph /  7.9 km/h 8.1 mph /  13 km/h 87 % 0.00 in /  0 mm
07:41 44.9 °F /  7.2 °C 41.3 °F /  5.2 °C 30.33 in /  1027 hPa SSE 4.0 mph /  6.4 km/h 9.2 mph /  14.8 km/h 87 % 0.00 in /  0 mm
07:46 45.0 °F /  7.2 °C 41.4 °F /  5.2 °C 30.33 in /  1027 hPa South 3.6 mph /  5.8 km/h 8.1 mph /  13 km/h 87 % 0.00 in /  0 mm
07:51 45.1 °F /  7.3 °C 41.5 °F /  5.3 °C 30.33 in /  1027 hPa South 2.6 mph /  4.2 km/h 4.0 mph /  6.4 km/h 87 % 0.00 in /  0 mm
07:56 45.2 °F /  7.3 °C 41.6 °F /  5.3 °C 30.33 in /  1027 hPa SSE 5.5 mph /  8.9 km/h 9.2 mph /  14.8 km/h 87 % 0.00 in /  0 mm
08:01 45.3 °F /  7.4 °C 41.7 °F /  5.4 °C 30.33 in /  1027 hPa SSE 1.5 mph /  2.4 km/h 8.1 mph /  13 km/h 87 % 0.00 in /  0 mm
08:06 45.4 °F /  7.4 °C 42.1 °F /  5.6 °C 30.32 in /  1026.6 hPa South 4.3 mph /  6.9 km/h 8.1 mph /  13 km/h 88 % 0.00 in /  0 mm
08:11 45.5 °F /  7.5 °C 42.2 °F /  5.7 °C 30.33 in /  1027 hPa SSW 2.2 mph /  3.5 km/h 5.0 mph /  8 km/h 88 % 0.00 in /  0 mm
08:17 45.7 °F /  7.6 °C 42.3 °F /  5.7 °C 30.32 in /  1026.6 hPa SE 5.3 mph /  8.5 km/h 12.7 mph /  20.4 km/h 88 % 0.00 in /  0 mm
08:22 45.9 °F /  7.7 °C 42.2 °F /  5.7 °C 30.32 in /  1026.6 hPa SSE 8.7 mph /  14 km/h 14.0 mph /  22.5 km/h 87 % 0.00 in /  0 mm
08:27 46.1 °F /  7.8 °C 42.4 °F /  5.8 °C 30.32 in /  1026.6 hPa South 6.5 mph /  10.5 km/h 11.5 mph /  18.5 km/h 87 % 0.00 in /  0 mm
08:32 46.3 °F /  7.9 °C 42.6 °F /  5.9 °C 30.31 in /  1026.3 hPa South 4.3 mph /  6.9 km/h 6.9 mph /  11.1 km/h 87 % 0.00 in /  0 mm
08:37 46.5 °F /  8.1 °C 42.8 °F /  6 °C 30.32 in /  1026.6 hPa SE 7.9 mph /  12.7 km/h 8.1 mph /  13 km/h 87 % 0.00 in /  0 mm
08:42 46.7 °F /  8.2 °C 42.7 °F /  5.9 °C 30.32 in /  1026.6 hPa South 5.5 mph /  8.9 km/h 9.2 mph /  14.8 km/h 86 % 0.00 in /  0 mm
08:47 46.9 °F /  8.3 °C 42.9 °F /  6.1 °C 30.31 in /  1026.3 hPa SSE 6.1 mph /  9.8 km/h 11.5 mph /  18.5 km/h 86 % 0.00 in /  0 mm
08:52 47.1 °F /  8.4 °C 43.1 °F /  6.2 °C 30.31 in /  1026.3 hPa SSE 8.4 mph /  13.5 km/h 19.6 mph /  31.5 km/h 86 % 0.00 in /  0 mm
08:57 47.3 °F /  8.5 °C 43.0 °F /  6.1 °C 30.31 in /  1026.3 hPa SSE 6.4 mph /  10.3 km/h 11.5 mph /  18.5 km/h 85 % 0.00 in /  0 mm
09:02 47.6 °F /  8.7 °C 43.3 °F /  6.3 °C 30.31 in /  1026.3 hPa South 5.9 mph /  9.5 km/h 11.0 mph /  17.7 km/h 85 % 0.00 in /  0 mm
09:07 47.9 °F /  8.8 °C 43.3 °F /  6.3 °C 30.31 in /  1026.3 hPa SSE 7.1 mph /  11.4 km/h 13.8 mph /  22.2 km/h 84 % 0.00 in /  0 mm
09:13 48.1 °F /  8.9 °C 43.5 °F /  6.4 °C 30.31 in /  1026.3 hPa SSW 7.5 mph /  12.1 km/h 12.7 mph /  20.4 km/h 84 % 0.00 in /  0 mm
09:18 48.3 °F /  9.1 °C 43.4 °F /  6.3 °C 30.30 in /  1026 hPa SSW 5.6 mph /  9 km/h 11.5 mph /  18.5 km/h 83 % 0.00 in /  0 mm
09:23 48.4 °F /  9.1 °C 43.5 °F /  6.4 °C 30.30 in /  1026 hPa South 5.4 mph /  8.7 km/h 10.4 mph /  16.7 km/h 83 % 0.00 in /  0 mm
09:28 48.5 °F /  9.2 °C 43.6 °F /  6.4 °C 30.30 in /  1026 hPa SSW 6.9 mph /  11.1 km/h 13.8 mph /  22.2 km/h 83 % 0.00 in /  0 mm
09:33 48.6 °F /  9.2 °C 43.7 °F /  6.5 °C 30.30 in /  1026 hPa South 3.0 mph /  4.8 km/h 12.0 mph /  19.3 km/h 83 % 0.00 in /  0 mm
09:38 48.7 °F /  9.3 °C 43.8 °F /  6.6 °C 30.30 in /  1026 hPa South 5.0 mph /  8 km/h 16.0 mph /  25.7 km/h 83 % 0.00 in /  0 mm
09:43 48.8 °F /  9.3 °C 43.9 °F /  6.6 °C 30.30 in /  1026 hPa South 3.0 mph /  4.8 km/h 16.0 mph /  25.7 km/h 83 % 0.00 in /  0 mm
09:48 48.9 °F /  9.4 °C 44.0 °F /  6.7 °C 30.29 in /  1025.6 hPa South 6.0 mph /  9.7 km/h 12.0 mph /  19.3 km/h 83 % 0.00 in /  0 mm
09:53 49.0 °F /  9.4 °C 44.1 °F /  6.7 °C 30.29 in /  1025.6 hPa South 5.0 mph /  8 km/h 12.0 mph /  19.3 km/h 83 % 0.00 in /  0 mm
09:58 49.1 °F /  9.5 °C 44.2 °F /  6.8 °C 30.29 in /  1025.6 hPa SE 2.6 mph /  4.2 km/h 10.0 mph /  16.1 km/h 83 % 0.00 in /  0 mm
10:03 49.1 °F /  9.5 °C 44.5 °F /  6.9 °C 30.29 in /  1025.6 hPa South 6.0 mph /  9.7 km/h 14.0 mph /  22.5 km/h 84 % 0.00 in /  0 mm
10:08 49.1 °F /  9.5 °C 44.5 °F /  6.9 °C 30.28 in /  1025.3 hPa South 5.0 mph /  8 km/h 10.0 mph /  16.1 km/h 84 % 0.00 in /  0 mm
10:13 49.0 °F /  9.4 °C 44.7 °F /  7.1 °C 30.28 in /  1025.3 hPa South 5.0 mph /  8 km/h 9.0 mph /  14.5 km/h 85 % 0.00 in /  0 mm
10:18 48.9 °F /  9.4 °C 44.6 °F /  7 °C 30.28 in /  1025.3 hPa South 5.4 mph /  8.7 km/h 10.0 mph /  16.1 km/h 85 % 0.00 in /  0 mm
10:23 48.8 °F /  9.3 °C 44.8 °F /  7.1 °C 30.27 in /  1024.9 hPa South 6.0 mph /  9.7 km/h 13.0 mph /  20.9 km/h 86 % 0.00 in /  0 mm
10:28 48.7 °F /  9.3 °C 44.7 °F /  7.1 °C 30.27 in /  1024.9 hPa South 3.0 mph /  4.8 km/h 9.0 mph /  14.5 km/h 86 % 0.00 in /  0 mm
10:33 48.7 °F /  9.3 °C 45.0 °F /  7.2 °C 30.27 in /  1024.9 hPa South 3.6 mph /  5.8 km/h 6.9 mph /  11.1 km/h 87 % 0.00 in /  0 mm
10:38 48.7 °F /  9.3 °C 45.3 °F /  7.4 °C 30.27 in /  1024.9 hPa SSE 8.0 mph /  12.9 km/h 15.0 mph /  24.1 km/h 88 % 0.00 in /  0 mm
10:43 48.7 °F /  9.3 °C 45.3 °F /  7.4 °C 30.26 in /  1024.6 hPa SE 6.5 mph /  10.5 km/h 9.2 mph /  14.8 km/h 88 % 0.00 in /  0 mm
10:48 48.7 °F /  9.3 °C 45.3 °F /  7.4 °C 30.27 in /  1024.9 hPa South 6.0 mph /  9.7 km/h 12.0 mph /  19.3 km/h 88 % 0.00 in /  0 mm
10:53 48.5 °F /  9.2 °C 45.4 °F /  7.4 °C 30.27 in /  1024.9 hPa South 6.0 mph /  9.7 km/h 16.0 mph /  25.7 km/h 89 % 0.00 in /  0 mm
10:58 48.5 °F /  9.2 °C 45.4 °F /  7.4 °C 30.26 in /  1024.6 hPa South 6.1 mph /  9.8 km/h 10.4 mph /  16.7 km/h 89 % 0.00 in /  0 mm
11:03 48.3 °F /  9.1 °C 45.5 °F /  7.5 °C 30.26 in /  1024.6 hPa South 3.9 mph /  6.3 km/h 11.5 mph /  18.5 km/h 90 % 0.00 in /  0 mm
11:08 48.2 °F /  9 °C 45.4 °F /  7.4 °C 30.26 in /  1024.6 hPa SSE 4.2 mph /  6.8 km/h 7.0 mph /  11.3 km/h 90 % 0.00 in /  0 mm
11:13 48.0 °F /  8.9 °C 45.5 °F /  7.5 °C 30.25 in /  1024.3 hPa South 4.3 mph /  6.9 km/h 6.0 mph /  9.7 km/h 91 % 0.00 in /  0 mm
11:18 48.0 °F /  8.9 °C 45.5 °F /  7.5 °C 30.26 in /  1024.6 hPa South 3.7 mph /  6 km/h 9.2 mph /  14.8 km/h 91 % 0.00 in /  0 mm
11:23 48.0 °F /  8.9 °C 45.8 °F /  7.7 °C 30.25 in /  1024.3 hPa South 4.0 mph /  6.4 km/h 10.4 mph /  16.7 km/h 92 % 0.01 in /  0.25 mm
11:28 48.2 °F /  9 °C 46.3 °F /  7.9 °C 30.25 in /  1024.3 hPa SSE 3.9 mph /  6.3 km/h 5.8 mph /  9.3 km/h 93 % 0.01 in /  0.25 mm
11:34 48.3 °F /  9.1 °C 46.4 °F /  8 °C 30.25 in /  1024.3 hPa SSW 3.4 mph /  5.5 km/h 7.0 mph /  11.3 km/h 93 % 0.01 in /  0.25 mm
11:39 48.4 °F /  9.1 °C 46.5 °F /  8.1 °C 30.25 in /  1024.3 hPa South 2.4 mph /  3.9 km/h 6.0 mph /  9.7 km/h 93 % 0.01 in /  0.25 mm
11:44 48.5 °F /  9.2 °C 46.6 °F /  8.1 °C 30.25 in /  1024.3 hPa SSW 3.5 mph /  5.6 km/h 7.0 mph /  11.3 km/h 93 % 0.01 in /  0.25 mm
11:49 48.6 °F /  9.2 °C 46.7 °F /  8.2 °C 30.25 in /  1024.3 hPa South 4.6 mph /  7.4 km/h 6.0 mph /  9.7 km/h 93 % 0.01 in /  0.25 mm
11:54 48.7 °F /  9.3 °C 46.8 °F /  8.2 °C 30.24 in /  1023.9 hPa SSE 3.8 mph /  6.1 km/h 9.2 mph /  14.8 km/h 93 % 0.01 in /  0.25 mm
11:59 48.7 °F /  9.3 °C 46.8 °F /  8.2 °C 30.24 in /  1023.9 hPa SSW 4.5 mph /  7.2 km/h 6.9 mph /  11.1 km/h 93 % 0.01 in /  0.25 mm
12:04 48.7 °F /  9.3 °C 46.8 °F /  8.2 °C 30.24 in /  1023.9 hPa SSW 3.2 mph /  5.1 km/h 5.8 mph /  9.3 km/h 93 % 0.01 in /  0.25 mm
12:09 48.8 °F /  9.3 °C 46.9 °F /  8.3 °C 30.23 in /  1023.6 hPa South 1.8 mph /  2.9 km/h 6.9 mph /  11.1 km/h 93 % 0.01 in /  0.25 mm
12:14 48.9 °F /  9.4 °C 47.2 °F /  8.4 °C 30.23 in /  1023.6 hPa South 1.2 mph /  1.9 km/h 3.0 mph /  4.8 km/h 94 % 0.01 in /  0.25 mm
12:20 49.0 °F /  9.4 °C 47.3 °F /  8.5 °C 30.22 in /  1023.2 hPa SSE 2.7 mph /  4.3 km/h 5.8 mph /  9.3 km/h 94 % 0.01 in /  0.25 mm
12:25 49.0 °F /  9.4 °C 47.1 °F /  8.4 °C 30.22 in /  1023.2 hPa South 3.9 mph /  6.3 km/h 8.1 mph /  13 km/h 93 % 0.00 in /  0 mm
12:30 49.0 °F /  9.4 °C 47.1 °F /  8.4 °C 30.21 in /  1022.9 hPa SSE 5.0 mph /  8 km/h 7.0 mph /  11.3 km/h 93 % 0.00 in /  0 mm
12:35 49.1 °F /  9.5 °C 47.2 °F /  8.4 °C 30.21 in /  1022.9 hPa SSE 2.8 mph /  4.5 km/h 3.5 mph /  5.6 km/h 93 % 0.00 in /  0 mm
12:40 49.2 °F /  9.6 °C 47.3 °F /  8.5 °C 30.21 in /  1022.9 hPa SSE 2.4 mph /  3.9 km/h 4.0 mph /  6.4 km/h 93 % 0.00 in /  0 mm
12:45 49.3 °F /  9.6 °C 47.6 °F /  8.7 °C 30.21 in /  1022.9 hPa SSW 3.5 mph /  5.6 km/h 5.8 mph /  9.3 km/h 94 % 0.00 in /  0 mm
12:50 49.4 °F /  9.7 °C 47.5 °F /  8.6 °C 30.21 in /  1022.9 hPa SW 1.8 mph /  2.9 km/h 5.8 mph /  9.3 km/h 93 % 0.00 in /  0 mm
12:55 49.4 °F /  9.7 °C 47.5 °F /  8.6 °C 30.20 in /  1022.6 hPa South 2.2 mph /  3.5 km/h 3.5 mph /  5.6 km/h 93 % 0.00 in /  0 mm
13:00 49.3 °F /  9.6 °C 47.4 °F /  8.6 °C 30.20 in /  1022.6 hPa South 1.6 mph /  2.6 km/h 3.5 mph /  5.6 km/h 93 % 0.00 in /  0 mm
13:05 49.4 °F /  9.7 °C 47.5 °F /  8.6 °C 30.20 in /  1022.6 hPa South 1.4 mph /  2.3 km/h 3.5 mph /  5.6 km/h 93 % 0.00 in /  0 mm
13:10 49.4 °F /  9.7 °C 47.7 °F /  8.7 °C 30.20 in /  1022.6 hPa South 2.8 mph /  4.5 km/h 6.9 mph /  11.1 km/h 94 % 0.00 in /  0 mm
13:15 49.5 °F /  9.7 °C 47.6 °F /  8.7 °C 30.19 in /  1022.2 hPa South 3.3 mph /  5.3 km/h 8.1 mph /  13 km/h 93 % 0.00 in /  0 mm
13:20 49.4 °F /  9.7 °C 47.5 °F /  8.6 °C 30.19 in /  1022.2 hPa South 4.6 mph /  7.4 km/h 8.0 mph /  12.9 km/h 93 % 0.00 in /  0 mm
13:25 49.4 °F /  9.7 °C 47.5 °F /  8.6 °C 30.19 in /  1022.2 hPa South 3.6 mph /  5.8 km/h 6.9 mph /  11.1 km/h 93 % 0.00 in /  0 mm
13:30 49.4 °F /  9.7 °C 47.5 °F /  8.6 °C 30.18 in /  1021.9 hPa SSE 4.0 mph /  6.4 km/h 6.0 mph /  9.7 km/h 93 % 0.00 in /  0 mm
13:35 49.3 °F /  9.6 °C 47.4 °F /  8.6 °C 30.17 in /  1021.6 hPa SSW 3.1 mph /  5 km/h 4.6 mph /  7.4 km/h 93 % 0.00 in /  0 mm
13:41 49.4 °F /  9.7 °C 47.5 °F /  8.6 °C 30.17 in /  1021.6 hPa South 3.1 mph /  5 km/h 7.0 mph /  11.3 km/h 93 % 0.00 in /  0 mm
13:46 49.4 °F /  9.7 °C 47.2 °F /  8.4 °C 30.17 in /  1021.6 hPa South 5.1 mph /  8.2 km/h 8.1 mph /  13 km/h 92 % 0.00 in /  0 mm
13:51 49.5 °F /  9.7 °C 47.3 °F /  8.5 °C 30.17 in /  1021.6 hPa South 5.1 mph /  8.2 km/h 8.1 mph /  13 km/h 92 % 0.00 in /  0 mm
13:56 49.5 °F /  9.7 °C 47.3 °F /  8.5 °C 30.17 in /  1021.6 hPa SSE 4.3 mph /  6.9 km/h 7.0 mph /  11.3 km/h 92 % 0.00 in /  0 mm
14:01 49.5 °F /  9.7 °C 47.3 °F /  8.5 °C 30.17 in /  1021.6 hPa South 3.1 mph /  5 km/h 5.8 mph /  9.3 km/h 92 % 0.00 in /  0 mm
14:06 49.5 °F /  9.7 °C 47.3 °F /  8.5 °C 30.17 in /  1021.6 hPa SW 5.8 mph /  9.3 km/h 9.0 mph /  14.5 km/h 92 % 0.00 in /  0 mm
14:11 49.5 °F /  9.7 °C 47.0 °F /  8.3 °C 30.17 in /  1021.6 hPa South 2.6 mph /  4.2 km/h 4.6 mph /  7.4 km/h 91 % 0.00 in /  0 mm
14:16 49.5 °F /  9.7 °C 47.3 °F /  8.5 °C 30.16 in /  1021.2 hPa SSW 3.2 mph /  5.1 km/h 6.0 mph /  9.7 km/h 92 % 0.00 in /  0 mm
14:21 49.6 °F /  9.8 °C 47.4 °F /  8.6 °C 30.16 in /  1021.2 hPa South 2.4 mph /  3.9 km/h 5.8 mph /  9.3 km/h 92 % 0.00 in /  0 mm
14:26 49.8 °F /  9.9 °C 47.3 °F /  8.5 °C 30.16 in /  1021.2 hPa SSE 2.1 mph /  3.4 km/h 4.6 mph /  7.4 km/h 91 % 0.00 in /  0 mm
14:31 50.0 °F /  10 °C 47.5 °F /  8.6 °C 30.15 in /  1020.9 hPa SW 3.3 mph /  5.3 km/h 7.0 mph /  11.3 km/h 91 % 0.00 in /  0 mm
14:36 50.2 °F /  10.1 °C 47.7 °F /  8.7 °C 30.15 in /  1020.9 hPa South 5.1 mph /  8.2 km/h 6.9 mph /  11.1 km/h 91 % 0.00 in /  0 mm
14:41 50.4 °F /  10.2 °C 47.6 °F /  8.7 °C 30.15 in /  1020.9 hPa SSW 3.7 mph /  6 km/h 6.0 mph /  9.7 km/h 90 % 0.00 in /  0 mm
14:47 50.5 °F /  10.3 °C 47.7 °F /  8.7 °C 30.15 in /  1020.9 hPa SSW 1.8 mph /  2.9 km/h 9.2 mph /  14.8 km/h 90 % 0.00 in /  0 mm
14:52 50.6 °F /  10.3 °C 47.5 °F /  8.6 °C 30.15 in /  1020.9 hPa South 4.2 mph /  6.8 km/h 6.9 mph /  11.1 km/h 89 % 0.00 in /  0 mm
14:57 50.8 °F /  10.4 °C 47.7 °F /  8.7 °C 30.15 in /  1020.9 hPa South 6.7 mph /  10.8 km/h 8.1 mph /  13 km/h 89 % 0.00 in /  0 mm
15:02 50.9 °F /  10.5 °C 47.8 °F /  8.8 °C 30.15 in /  1020.9 hPa SSW 4.1 mph /  6.6 km/h 9.2 mph /  14.8 km/h 89 % 0.00 in /  0 mm
15:07 51.0 °F /  10.6 °C 47.6 °F /  8.7 °C 30.15 in /  1020.9 hPa South 2.2 mph /  3.5 km/h 3.5 mph /  5.6 km/h 88 % 0.00 in /  0 mm
15:12 51.2 °F /  10.7 °C 47.8 °F /  8.8 °C 30.15 in /  1020.9 hPa South 3.6 mph /  5.8 km/h 5.8 mph /  9.3 km/h 88 % 0.00 in /  0 mm
15:17 51.3 °F /  10.7 °C 47.6 °F /  8.7 °C 30.15 in /  1020.9 hPa South 3.3 mph /  5.3 km/h 5.0 mph /  8 km/h 87 % 0.00 in /  0 mm
15:22 51.4 °F /  10.8 °C 47.7 °F /  8.7 °C 30.14 in /  1020.5 hPa SSE 2.1 mph /  3.4 km/h 5.8 mph /  9.3 km/h 87 % 0.00 in /  0 mm
15:27 51.5 °F /  10.8 °C 47.8 °F /  8.8 °C 30.15 in /  1020.9 hPa SSW 3.7 mph /  6 km/h 6.9 mph /  11.1 km/h 87 % 0.00 in /  0 mm
15:32 51.5 °F /  10.8 °C 47.5 °F /  8.6 °C 30.14 in /  1020.5 hPa South 0.3 mph /  0.5 km/h 3.5 mph /  5.6 km/h 86 % 0.00 in /  0 mm
15:37 51.4 °F /  10.8 °C 47.4 °F /  8.6 °C 30.14 in /  1020.5 hPa South 3.2 mph /  5.1 km/h 5.8 mph /  9.3 km/h 86 % 0.00 in /  0 mm
15:42 51.2 °F /  10.7 °C 47.2 °F /  8.4 °C 30.14 in /  1020.5 hPa SSW 2.3 mph /  3.7 km/h 6.9 mph /  11.1 km/h 86 % 0.00 in /  0 mm
15:47 51.1 °F /  10.6 °C 47.1 °F /  8.4 °C 30.14 in /  1020.5 hPa South 1.5 mph /  2.4 km/h 3.5 mph /  5.6 km/h 86 % 0.00 in /  0 mm
15:52 51.0 °F /  10.6 °C 47.0 °F /  8.3 °C 30.14 in /  1020.5 hPa SSW 0.3 mph /  0.5 km/h 2.0 mph /  3.2 km/h 86 % 0.00 in /  0 mm
15:58 50.9 °F /  10.5 °C 46.9 °F /  8.3 °C 30.14 in /  1020.5 hPa SSE 0.8 mph /  1.3 km/h 2.3 mph /  3.7 km/h 86 % 0.00 in /  0 mm
16:03 50.8 °F /  10.4 °C 46.8 °F /  8.2 °C 30.14 in /  1020.5 hPa SW 1.2 mph /  1.9 km/h 3.5 mph /  5.6 km/h 86 % 0.00 in /  0 mm
16:08 50.7 °F /  10.4 °C 46.7 °F /  8.2 °C 30.14 in /  1020.5 hPa Calm     86 % 0.00 in /  0 mm
16:13 50.6 °F /  10.3 °C 46.9 °F /  8.3 °C 30.14 in /  1020.5 hPa SW 0.7 mph /  1.1 km/h 2.0 mph /  3.2 km/h 87 % 0.00 in /  0 mm
16:18 50.6 °F /  10.3 °C 46.9 °F /  8.3 °C 30.14 in /  1020.5 hPa Calm   2.0 mph /  3.2 km/h 87 % 0.00 in /  0 mm
16:23 50.4 °F /  10.2 °C 46.7 °F /  8.2 °C 30.14 in /  1020.5 hPa Calm   5.0 mph /  8 km/h 87 % 0.00 in /  0 mm
16:28 50.2 °F /  10.1 °C 46.8 °F /  8.2 °C 30.14 in /  1020.5 hPa SSW 2.0 mph /  3.2 km/h 5.0 mph /  8 km/h 88 % 0.00 in /  0 mm
16:33 50.0 °F /  10 °C 46.6 °F /  8.1 °C 30.14 in /  1020.5 hPa SW 2.0 mph /  3.2 km/h 4.0 mph /  6.4 km/h 88 % 0.00 in /  0 mm
16:38 49.9 °F /  9.9 °C 46.5 °F /  8.1 °C 30.13 in /  1020.2 hPa SW 2.0 mph /  3.2 km/h 6.0 mph /  9.7 km/h 88 % 0.00 in /  0 mm
16:43 49.7 °F /  9.8 °C 46.6 °F /  8.1 °C 30.13 in /  1020.2 hPa Calm   5.0 mph /  8 km/h 89 % 0.00 in /  0 mm
16:48 49.6 °F /  9.8 °C 46.5 °F /  8.1 °C 30.13 in /  1020.2 hPa SSW 1.0 mph /  1.6 km/h 4.0 mph /  6.4 km/h 89 % 0.00 in /  0 mm
16:53 49.4 °F /  9.7 °C 46.3 °F /  7.9 °C 30.12 in /  1019.9 hPa SSW 1.0 mph /  1.6 km/h 5.0 mph /  8 km/h 89 % 0.00 in /  0 mm
16:58 49.4 °F /  9.7 °C 46.3 °F /  7.9 °C 30.12 in /  1019.9 hPa South 0.6 mph /  1 km/h 2.3 mph /  3.7 km/h 89 % 0.00 in /  0 mm
17:03 49.3 °F /  9.6 °C 46.2 °F /  7.9 °C 30.12 in /  1019.9 hPa SSW 0.2 mph /  0.3 km/h 1.2 mph /  1.9 km/h 89 % 0.00 in /  0 mm
17:08 49.2 °F /  9.6 °C 46.1 °F /  7.8 °C 30.12 in /  1019.9 hPa SSW 2.7 mph /  4.3 km/h 5.0 mph /  8 km/h 89 % 0.00 in /  0 mm
17:13 49.2 °F /  9.6 °C 46.4 °F /  8 °C 30.12 in /  1019.9 hPa Calm     90 % 0.00 in /  0 mm
17:18 49.2 °F /  9.6 °C 46.4 °F /  8 °C 30.12 in /  1019.9 hPa SW 2.4 mph /  3.9 km/h 3.5 mph /  5.6 km/h 90 % 0.00 in /  0 mm
17:23 49.1 °F /  9.5 °C 46.3 °F /  7.9 °C 30.12 in /  1019.9 hPa SW 0.5 mph /  0.8 km/h 2.0 mph /  3.2 km/h 90 % 0.00 in /  0 mm
17:29 49.2 °F /  9.6 °C 46.4 °F /  8 °C 30.11 in /  1019.5 hPa SSW 1.7 mph /  2.7 km/h 3.5 mph /  5.6 km/h 90 % 0.00 in /  0 mm
17:34 49.2 °F /  9.6 °C 46.4 °F /  8 °C 30.11 in /  1019.5 hPa South 1.0 mph /  1.6 km/h 3.5 mph /  5.6 km/h 90 % 0.00 in /  0 mm
17:39 49.1 °F /  9.5 °C 46.3 °F /  7.9 °C 30.11 in /  1019.5 hPa SSW 2.7 mph /  4.3 km/h 7.0 mph /  11.3 km/h 90 % 0.00 in /  0 mm
17:44 49.2 °F /  9.6 °C 46.4 °F /  8 °C 30.11 in /  1019.5 hPa SSW 0.6 mph /  1 km/h 8.1 mph /  13 km/h 90 % 0.00 in /  0 mm
17:49 49.2 °F /  9.6 °C 46.4 °F /  8 °C 30.11 in /  1019.5 hPa SW 2.4 mph /  3.9 km/h 4.6 mph /  7.4 km/h 90 % 0.00 in /  0 mm
17:54 49.3 °F /  9.6 °C 46.5 °F /  8.1 °C 30.11 in /  1019.5 hPa SSW 1.2 mph /  1.9 km/h 2.3 mph /  3.7 km/h 90 % 0.00 in /  0 mm
17:59 49.4 °F /  9.7 °C 46.9 °F /  8.3 °C 30.11 in /  1019.5 hPa South 0.3 mph /  0.5 km/h 1.2 mph /  1.9 km/h 91 % 0.00 in /  0 mm
18:04 49.5 °F /  9.7 °C 47.0 °F /  8.3 °C 30.10 in /  1019.2 hPa SSW 0.9 mph /  1.4 km/h 2.3 mph /  3.7 km/h 91 % 0.00 in /  0 mm
18:09 49.5 °F /  9.7 °C 46.7 °F /  8.2 °C 30.10 in /  1019.2 hPa SSW 3.6 mph /  5.8 km/h 6.9 mph /  11.1 km/h 90 % 0.00 in /  0 mm
18:14 49.6 °F /  9.8 °C 47.1 °F /  8.4 °C 30.10 in /  1019.2 hPa SW 3.6 mph /  5.8 km/h 4.6 mph /  7.4 km/h 91 % 0.00 in /  0 mm
18:20 49.7 °F /  9.8 °C 46.9 °F /  8.3 °C 30.11 in /  1019.5 hPa SW 0.6 mph /  1 km/h 2.3 mph /  3.7 km/h 90 % 0.00 in /  0 mm
18:25 49.7 °F /  9.8 °C 46.9 °F /  8.3 °C 30.10 in /  1019.2 hPa SSW 2.3 mph /  3.7 km/h 5.8 mph /  9.3 km/h 90 % 0.00 in /  0 mm
18:30 49.7 °F /  9.8 °C 46.9 °F /  8.3 °C 30.10 in /  1019.2 hPa South 3.6 mph /  5.8 km/h 6.9 mph /  11.1 km/h 90 % 0.00 in /  0 mm
18:35 49.8 °F /  9.9 °C 47.0 °F /  8.3 °C 30.10 in /  1019.2 hPa South 4.1 mph /  6.6 km/h 7.0 mph /  11.3 km/h 90 % 0.00 in /  0 mm
18:40 49.8 °F /  9.9 °C 46.7 °F /  8.2 °C 30.10 in /  1019.2 hPa SSW 3.9 mph /  6.3 km/h 6.0 mph /  9.7 km/h 89 % 0.00 in /  0 mm
18:45 49.8 °F /  9.9 °C 46.7 °F /  8.2 °C 30.09 in /  1018.8 hPa South 3.4 mph /  5.5 km/h 8.1 mph /  13 km/h 89 % 0.00 in /  0 mm
18:50 49.8 °F /  9.9 °C 46.7 °F /  8.2 °C 30.09 in /  1018.8 hPa South 3.4 mph /  5.5 km/h 5.8 mph /  9.3 km/h 89 % 0.00 in /  0 mm
18:55 49.7 °F /  9.8 °C 46.6 °F /  8.1 °C 30.09 in /  1018.8 hPa South 5.3 mph /  8.5 km/h 8.0 mph /  12.9 km/h 89 % 0.00 in /  0 mm
19:00 49.7 °F /  9.8 °C 46.6 °F /  8.1 °C 30.09 in /  1018.8 hPa SSW 4.6 mph /  7.4 km/h 6.9 mph /  11.1 km/h 89 % 0.00 in /  0 mm
19:05 49.7 °F /  9.8 °C 46.6 °F /  8.1 °C 30.09 in /  1018.8 hPa South 7.5 mph /  12.1 km/h 12.7 mph /  20.4 km/h 89 % 0.00 in /  0 mm
19:10 49.7 °F /  9.8 °C 46.6 °F /  8.1 °C 30.08 in /  1018.5 hPa South 5.2 mph /  8.4 km/h 8.1 mph /  13 km/h 89 % 0.00 in /  0 mm
19:16 49.7 °F /  9.8 °C 46.6 °F /  8.1 °C 30.08 in /  1018.5 hPa SSW 6.1 mph /  9.8 km/h 11.5 mph /  18.5 km/h 89 % 0.00 in /  0 mm
19:21 49.8 °F /  9.9 °C 46.7 °F /  8.2 °C 30.08 in /  1018.5 hPa South 3.7 mph /  6 km/h 7.0 mph /  11.3 km/h 89 % 0.00 in /  0 mm
19:26 49.9 °F /  9.9 °C 46.8 °F /  8.2 °C 30.08 in /  1018.5 hPa SW 7.5 mph /  12.1 km/h 11.5 mph /  18.5 km/h 89 % 0.00 in /  0 mm
19:31 50.0 °F /  10 °C 46.9 °F /  8.3 °C 30.08 in /  1018.5 hPa SW 6.0 mph /  9.7 km/h 8.1 mph /  13 km/h 89 % 0.00 in /  0 mm
19:36 50.0 °F /  10 °C 46.9 °F /  8.3 °C 30.08 in /  1018.5 hPa SSW 4.2 mph /  6.8 km/h 6.9 mph /  11.1 km/h 89 % 0.00 in /  0 mm
19:41 50.1 °F /  10.1 °C 47.0 °F /  8.3 °C 30.08 in /  1018.5 hPa SSW 6.7 mph /  10.8 km/h 8.1 mph /  13 km/h 89 % 0.00 in /  0 mm
19:46 50.2 °F /  10.1 °C 47.1 °F /  8.4 °C 30.08 in /  1018.5 hPa SSW 6.3 mph /  10.1 km/h 8.1 mph /  13 km/h 89 % 0.00 in /  0 mm
19:51 50.3 °F /  10.2 °C 47.2 °F /  8.4 °C 30.08 in /  1018.5 hPa SSW 6.1 mph /  9.8 km/h 10.4 mph /  16.7 km/h 89 % 0.00 in /  0 mm
19:56 50.4 °F /  10.2 °C 47.3 °F /  8.5 °C 30.08 in /  1018.5 hPa SSW 6.6 mph /  10.6 km/h 11.5 mph /  18.5 km/h 89 % 0.00 in /  0 mm
20:01 50.6 °F /  10.3 °C 47.2 °F /  8.4 °C 30.08 in /  1018.5 hPa SSW 4.6 mph /  7.4 km/h 9.2 mph /  14.8 km/h 88 % 0.00 in /  0 mm
20:06 50.7 °F /  10.4 °C 47.3 °F /  8.5 °C 30.08 in /  1018.5 hPa SW 8.3 mph /  13.4 km/h 11.5 mph /  18.5 km/h 88 % 0.00 in /  0 mm
20:11 50.8 °F /  10.4 °C 47.4 °F /  8.6 °C 30.07 in /  1018.2 hPa South 6.7 mph /  10.8 km/h 8.1 mph /  13 km/h 88 % 0.00 in /  0 mm
20:16 51.0 °F /  10.6 °C 47.6 °F /  8.7 °C 30.07 in /  1018.2 hPa SSW 6.1 mph /  9.8 km/h 12.7 mph /  20.4 km/h 88 % 0.00 in /  0 mm
20:22 51.2 °F /  10.7 °C 47.5 °F /  8.6 °C 30.07 in /  1018.2 hPa South 5.6 mph /  9 km/h 10.4 mph /  16.7 km/h 87 % 0.00 in /  0 mm
20:27 51.3 °F /  10.7 °C 47.6 °F /  8.7 °C 30.06 in /  1017.8 hPa South 4.7 mph /  7.6 km/h 6.9 mph /  11.1 km/h 87 % 0.00 in /  0 mm
20:32 51.5 °F /  10.8 °C 47.8 °F /  8.8 °C 30.07 in /  1018.2 hPa South 3.3 mph /  5.3 km/h 11.5 mph /  18.5 km/h 87 % 0.00 in /  0 mm
20:37 51.6 °F /  10.9 °C 47.9 °F /  8.8 °C 30.06 in /  1017.8 hPa South 5.4 mph /  8.7 km/h 11.5 mph /  18.5 km/h 87 % 0.00 in /  0 mm
20:42 51.7 °F /  10.9 °C 47.6 °F /  8.7 °C 30.06 in /  1017.8 hPa SSE 7.6 mph /  12.2 km/h 9.2 mph /  14.8 km/h 86 % 0.00 in /  0 mm
20:47 51.8 °F /  11 °C 47.7 °F /  8.7 °C 30.06 in /  1017.8 hPa South 5.5 mph /  8.9 km/h 9.0 mph /  14.5 km/h 86 % 0.00 in /  0 mm
20:52 52.0 °F /  11.1 °C 47.9 °F /  8.8 °C 30.06 in /  1017.8 hPa South 4.5 mph /  7.2 km/h 12.7 mph /  20.4 km/h 86 % 0.00 in /  0 mm
20:57 52.1 °F /  11.2 °C 48.0 °F /  8.9 °C 30.06 in /  1017.8 hPa SSW 3.7 mph /  6 km/h 8.1 mph /  13 km/h 86 % 0.00 in /  0 mm
21:02 52.2 °F /  11.2 °C 47.8 °F /  8.8 °C 30.06 in /  1017.8 hPa South 6.5 mph /  10.5 km/h 15.0 mph /  24.1 km/h 85 % 0.00 in /  0 mm
21:07 52.3 °F /  11.3 °C 47.9 °F /  8.8 °C 30.05 in /  1017.5 hPa South 5.4 mph /  8.7 km/h 10.4 mph /  16.7 km/h 85 % 0.00 in /  0 mm
21:12 52.4 °F /  11.3 °C 48.0 °F /  8.9 °C 30.05 in /  1017.5 hPa South 4.8 mph /  7.7 km/h 8.1 mph /  13 km/h 85 % 0.00 in /  0 mm
21:18 52.4 °F /  11.3 °C 47.7 °F /  8.7 °C 30.05 in /  1017.5 hPa South 8.5 mph /  13.7 km/h 10.4 mph /  16.7 km/h 84 % 0.00 in /  0 mm
21:23 52.4 °F /  11.3 °C 47.7 °F /  8.7 °C 30.05 in /  1017.5 hPa South 5.4 mph /  8.7 km/h 9.2 mph /  14.8 km/h 84 % 0.00 in /  0 mm
21:28 52.4 °F /  11.3 °C 47.7 °F /  8.7 °C 30.05 in /  1017.5 hPa South 4.2 mph /  6.8 km/h 12.7 mph /  20.4 km/h 84 % 0.00 in /  0 mm
21:33 52.4 °F /  11.3 °C 47.7 °F /  8.7 °C 30.05 in /  1017.5 hPa SSW 5.5 mph /  8.9 km/h 10.4 mph /  16.7 km/h 84 % 0.00 in /  0 mm
21:38 52.4 °F /  11.3 °C 47.7 °F /  8.7 °C 30.05 in /  1017.5 hPa SSW 5.0 mph /  8 km/h 12.0 mph /  19.3 km/h 84 % 0.00 in /  0 mm
21:43 52.4 °F /  11.3 °C 47.7 °F /  8.7 °C 30.04 in /  1017.2 hPa South 5.0 mph /  8 km/h 12.0 mph /  19.3 km/h 84 % 0.00 in /  0 mm
21:48 52.4 °F /  11.3 °C 47.7 °F /  8.7 °C 30.04 in /  1017.2 hPa SSW 8.0 mph /  12.9 km/h 14.0 mph /  22.5 km/h 84 % 0.00 in /  0 mm
21:53 52.5 °F /  11.4 °C 47.8 °F /  8.8 °C 30.04 in /  1017.2 hPa SSW 7.0 mph /  11.3 km/h 12.0 mph /  19.3 km/h 84 % 0.00 in /  0 mm
21:58 52.6 °F /  11.4 °C 47.6 °F /  8.7 °C 30.03 in /  1016.8 hPa South 4.5 mph /  7.2 km/h 11.5 mph /  18.5 km/h 83 % 0.00 in /  0 mm
22:03 52.6 °F /  11.4 °C 47.6 °F /  8.7 °C 30.03 in /  1016.8 hPa South 6.0 mph /  9.7 km/h 14.0 mph /  22.5 km/h 83 % 0.00 in /  0 mm
22:08 52.6 °F /  11.4 °C 47.6 °F /  8.7 °C 30.03 in /  1016.8 hPa SSW 6.3 mph /  10.1 km/h 10.4 mph /  16.7 km/h 83 % 0.00 in /  0 mm
22:13 52.7 °F /  11.5 °C 47.7 °F /  8.7 °C 30.03 in /  1016.8 hPa South 6.0 mph /  9.7 km/h 13.0 mph /  20.9 km/h 83 % 0.00 in /  0 mm
22:18 52.7 °F /  11.5 °C 47.7 °F /  8.7 °C 30.03 in /  1016.8 hPa South 6.0 mph /  9.7 km/h 13.0 mph /  20.9 km/h 83 % 0.00 in /  0 mm
22:23 52.8 °F /  11.6 °C 47.8 °F /  8.8 °C 30.02 in /  1016.5 hPa South 6.0 mph /  9.7 km/h 12.0 mph /  19.3 km/h 83 % 0.00 in /  0 mm
22:28 52.8 °F /  11.6 °C 47.8 °F /  8.8 °C 30.02 in /  1016.5 hPa South 4.5 mph /  7.2 km/h 9.2 mph /  14.8 km/h 83 % 0.00 in /  0 mm
22:33 52.8 °F /  11.6 °C 47.8 °F /  8.8 °C 30.02 in /  1016.5 hPa South 6.0 mph /  9.7 km/h 10.0 mph /  16.1 km/h 83 % 0.00 in /  0 mm
22:38 52.8 °F /  11.6 °C 47.5 °F /  8.6 °C 30.01 in /  1016.1 hPa South 6.0 mph /  9.7 km/h 12.0 mph /  19.3 km/h 82 % 0.00 in /  0 mm
22:43 52.7 °F /  11.5 °C 47.4 °F /  8.6 °C 30.01 in /  1016.1 hPa SSW 2.0 mph /  3.2 km/h 8.0 mph /  12.9 km/h 82 % 0.00 in /  0 mm
22:48 52.6 °F /  11.4 °C 47.6 °F /  8.7 °C 30.01 in /  1016.1 hPa South 6.0 mph /  9.7 km/h 13.0 mph /  20.9 km/h 83 % 0.00 in /  0 mm
22:53 52.6 °F /  11.4 °C 47.3 °F /  8.5 °C 30.01 in /  1016.1 hPa SSW 6.0 mph /  9.7 km/h 12.0 mph /  19.3 km/h 82 % 0.00 in /  0 mm
22:58 52.5 °F /  11.4 °C 47.2 °F /  8.4 °C 30.00 in /  1015.8 hPa SSW 2.7 mph /  4.3 km/h 6.0 mph /  9.7 km/h 82 % 0.00 in /  0 mm
23:03 52.5 °F /  11.4 °C 47.5 °F /  8.6 °C 30.00 in /  1015.8 hPa SSW 4.5 mph /  7.2 km/h 11.5 mph /  18.5 km/h 83 % 0.00 in /  0 mm
23:08 52.4 °F /  11.3 °C 47.4 °F /  8.6 °C 30.00 in /  1015.8 hPa South 5.3 mph /  8.5 km/h 11.0 mph /  17.7 km/h 83 % 0.00 in /  0 mm
23:13 52.3 °F /  11.3 °C 47.3 °F /  8.5 °C 30.00 in /  1015.8 hPa South 3.4 mph /  5.5 km/h 8.1 mph /  13 km/h 83 % 0.00 in /  0 mm
23:18 52.2 °F /  11.2 °C 47.2 °F /  8.4 °C 30.00 in /  1015.8 hPa South 9.0 mph /  14.5 km/h 10.4 mph /  16.7 km/h 83 % 0.00 in /  0 mm
23:23 52.1 °F /  11.2 °C 47.1 °F /  8.4 °C 30.00 in /  1015.8 hPa South 3.6 mph /  5.8 km/h 6.9 mph /  11.1 km/h 83 % 0.00 in /  0 mm
23:28 52.1 °F /  11.2 °C 47.1 °F /  8.4 °C 30.00 in /  1015.8 hPa South 4.8 mph /  7.7 km/h 9.2 mph /  14.8 km/h 83 % 0.00 in /  0 mm
23:33 52.0 °F /  11.1 °C 47.0 °F /  8.3 °C 30.00 in /  1015.8 hPa SSW 4.4 mph /  7.1 km/h 6.9 mph /  11.1 km/h 83 % 0.00 in /  0 mm
23:39 52.0 °F /  11.1 °C 47.0 °F /  8.3 °C 30.00 in /  1015.8 hPa SSW 4.0 mph /  6.4 km/h 8.1 mph /  13 km/h 83 % 0.00 in /  0 mm
23:44 51.9 °F /  11.1 °C 46.9 °F /  8.3 °C 29.99 in /  1015.5 hPa South 4.2 mph /  6.8 km/h 8.1 mph /  13 km/h 83 % 0.00 in /  0 mm
23:49 51.9 °F /  11.1 °C 46.9 °F /  8.3 °C 29.99 in /  1015.5 hPa South 5.1 mph /  8.2 km/h 8.0 mph /  12.9 km/h 83 % 0.00 in /  0 mm
23:54 51.9 °F /  11.1 °C 47.2 °F /  8.4 °C 29.99 in /  1015.5 hPa South 6.9 mph /  11.1 km/h 11.5 mph /  18.5 km/h 84 % 0.00 in /  0 mm
23:59 51.9 °F /  11.1 °C 47.2 °F /  8.4 °C 29.98 in /  1015.1 hPa SW 4.4 mph /  7.1 km/h 6.9 mph /  11.1 km/h 84 % 0.00 in /  0 mm
Crab Meadow Weather
Compliments of Weather Underground - 3 mb

Script developed by  Jim McMurry - jmcmurry@mwt.net Adapted for the template by  Wim van der Kuil - Leuven-Template.eu

Extremes: By average annual rainfall, the wettest place in the world is Mawslynram, in Meghalaya State, India with 467 1/2 inches per annum.